User: anonymous
Location: Vancouver
(49.2500°N, 123.1330°W)
Time: 05:07:30
(UTC-07:00)
Language:

CZ-2C R/B - Orbit

View from above orbital plane
View from above orbital plane
View from above satellite
View from above satellite

Ground track
Ground track

The orbit data is extracted from the following two-line orbital elements,

1 28480U 04046B   14263.85002416  .00000100  00000-0  54249-4 0  4431
2 28480 098.1032 052.5270 0141353 299.0692 181.4744 14.25331836511712
Epoch (UTC): 20 September 2014 20:24:02
Eccentricity: 0.0141353
inclination: 98.1032°
perigee height: 706 km
apogee height: 909 km
right ascension of ascending node: 52.5270°
argument of perigee: 299.0692°
revolutions per day: 14.25331836
mean anomaly at epoch: 181.4744°
orbit number at epoch: 51171

The dashed part of the orbit path shows where the satellite is in the earth's shadow,  

DLR